Torna al catalogo

STARLINK-3090

AttivoComunicazioniVLEO
NORAD 49132·PAYLOAD·🇺🇸 United States

Lanciato Sep 14, 2021 da Vandenberg Space Force Base

Loading…

Prossimi Passaggi (prossime 24 ore)

TLE

AggiornatoSource: CelesTrak SupGP

Epoca: Sep 15, 2026, 01:23 UTC

1 49132C 21082C   26258.05812500 -.00019340  00000+0 -16209-2 0  2582
2 49132  70.0018 176.8637 0002973 271.5330 203.1102 14.98338181    13

Traccia STARLINK-3090 in tempo reale con AllMySat

Download on the App Store